Location: Milton Keynes
(52.0316°N, 0.7531°W)
Time: 12:51:43
(UTC+00:00)

N. Korean satellite - Pass Details

Date: 29 January 2019
Orbit: 456 x 510 km, 97.2° (Epoch: 23 February)

Event Time Altitude Azimuth Distance (km) Brightness Sun altitude
Rises 18:03:57 0° 193° (SSW) 2,604 10.6 -12.2°
Reaches altitude 10° 18:06:15 10° 206° (SSW) 1,728 9.9 -12.5°
Maximum altitude 18:09:29 27° 266° (W) 1,002 9.1 -13.0°
Drops below altitude 10° 18:12:44 10° 326° (NW) 1,744 9.7 -13.5°
Sets 18:15:04 0° 338° (NNW) 2,634 10.4 -13.8°
